Regional Weather Roundup
Issued by NWS Grand Forks, ND

Home | Current Version | Previous Version | Graphics & Text | Print | Product List | Glossary On
Versions: 1 2 3 4 5 6 7 8 9 10 11 12 13 14 15 16 17 18 19 20 21 22 23 24 25 26 27 28 29 30 31 32 33 34 35 36 37 38 39 40 41 42 43 44 45 46 47 48 49 50
000
ASUS43 KFGF 211231
RWRFGF
PRAIRIE TO PINES  WEATHER ROUNDUP
NATIONAL WEATHER SERVICE EASTERN NORTH DAKOTA/GRAND FORKS ND
700 AM CDT SAT OCT 21 2017

 **SATELLITE DATA USED TO AUGMENT SKY COVER AT AUTOMATED STATIONS**
 *****  WEATHER ACROSS EASTERN NORTH DAKOTA  *****

CITY           SKY/WX    TMP DP  RH WIND       PRES   REMARKS
GRAND FORKS    FAIR      64  58  80 S20G32    29.34R
6HR MIN TEMP:  63; 6HR MAX TEMP:  69;

GRAND FRKS AFB FAIR      61  57  87 S14       29.34R
DEVILS LAKE    FAIR      50  38  63 W13       29.35R
6HR MIN TEMP:  50; 6HR MAX TEMP:  62;

FARGO          FAIR      64  58  80 S16G31    29.40S
WAHPETON ARPT  NOT AVBL
$$

 ***** WEATHER ACROSS CENTRAL AND WESTERN NORTH DAKOTA  *****

CITY           SKY/WX    TMP DP  RH WIND       PRES   REMARKS
BISMARCK       FAIR      52  39  61 NW20G30   29.46F
6HR MIN TEMP:  52; 6HR MAX TEMP:  65; 6HR PCP: TRACE;

MINOT          FAIR      50  39  66 SW22G28   29.38R
6HR MIN TEMP:  50; 6HR MAX TEMP:  65;

JAMESTOWN      FAIR      53  37  54 W10       29.41R
6HR MIN TEMP:  53; 6HR MAX TEMP:  63;

MINOT AFB      FAIR      49  38  68 W23G31    29.36R
GARRISON         N/A     48  38  68 W18       29.45R
WILLISTON      CLEAR     46  37  71 S17       29.48R
DICKINSON      FAIR      46  34  62 W25G36    29.53R
6HR MIN TEMP:  45; 6HR MAX TEMP:  57;

HETTINGER      FAIR      47  31  53 W29G38    29.58R
6HR MIN TEMP:  46; 6HR MAX TEMP:  54;

$$

 *****  OTHER AIRPORT OBSERVATIONS IN OUR AREA  *****

CITY           SKY/WX    TMP DP  RH WIND       PRES   REMARKS
WALHALLA       FAIR     N/A N/A N/A SE12      29.28R
GRAFTON AIRPOR FAIR      61  59  94 S17       29.34S
VALLEY CITY AR FAIR      52  45  76 W14       29.42R
CANDO          FAIR      48  37  66 W13G20    29.34R
CAVALIER APRT  FAIR      61  59  94 S14G23    29.29R
GWINNER        CLOUDY    64  59  82 SW9       29.43R
SHEYENNE NWR     N/A     60  58  92 S7        29.95S
ROLLA          FAIR      46  39  76 W17G25    29.29R
 ***** THE ABOVE OBSERVATIONS ARE NON NWS ARE NOT QUALITY
       CONTROLLED AND MAY MIS-REPORT RAIN FOR SNOW...
$$

  *****  WEATHER ACROSS NORTHERN MINNESOTA  *****

CITY           SKY/WX    TMP DP  RH WIND       PRES   REMARKS
FLAG ISLAND    FAIR      55  52  88 S18       29.42F
WARROAD        FAIR      61  55  82 SE16      29.42F
ROSEAU         FAIR      63  55  77 SE15      29.40S
HALLOCK        FAIR      64  57  77 S23G29    29.32S
THF RVR FALLS  FAIR      63  56  78 S17       29.41F
6HR MIN TEMP:  63; 6HR MAX TEMP:  67;

BAUDETTE       FAIR      61  55  81 SE13      29.47S
6HR MIN TEMP:  61; 6HR MAX TEMP:  67;

WASKISH        FAIR      63  55  77 SE12G18   29.50R
CROOKSTON      FAIR      64  57  77 S24G30    29.38S
STEPHEN NDAWN    N/A     64  57  77 S16         N/A
GREENBUSH NDAW   N/A     63  57  82 S15         N/A
$$
  *****  WEATHER ACROSS CENTRAL AND WEST MINNESOTA  *****

CITY           SKY/WX    TMP DP  RH WIND       PRES   REMARKS
FOSSTON        FAIR      61  54  77 S16       29.44F
BEMIDJI        CLOUDY    63  56  78 S13G21    29.51S
6HR MIN TEMP:  60; 6HR MAX TEMP:  65; 6HR PCP:  0.01;

PARK RAPIDS    CLOUDY    63  57  81 S20G30    29.52F
6HR MIN TEMP:  62; 6HR MAX TEMP:  65; 6HR PCP:  0.03;

ELBOW LAKE     PTSUNNY   59  56  90 SE17G24   29.50S
6HR MIN TEMP:  59; 6HR MAX TEMP:  64;

WADENA         CLOUDY    61  55  82 S17       29.52F
DETROIT LAKES  FAIR      61  55  82 S16G22    29.49S
MOORHEAD       FAIR      63  55  77 S23G29    29.43R
FERGUS FALLS   FAIR      61  55  82 S17       29.48S
MORRIS MN      MOCLDY    63  57  82 SE15      29.50S
STAPLES        CLOUDY    63  54  72 SE14G20   29.56S
$$
  *****  WEATHER ELSEWHERE ACROSS MINNESOTA  *****

CITY           SKY/WX    TMP DP  RH WIND       PRES   REMARKS
DULUTH         FAIR      58  52  80 S15       29.67F
6HR MIN TEMP:  58; 6HR MAX TEMP:  62; 6HR PCP: TRACE;

INTRNTL FALLS  FAIR      61  51  70 S9        29.54S
6HR MIN TEMP:  61; 6HR MAX TEMP:  66;

ELY            FAIR      59  48  67 S12G20    29.66R
CLOQUET        CLOUDY    61  50  67 S10G17    29.67R
WHEATON        FAIR      61  55  82 SE13      29.48R
BRAINERD       CLOUDY    62  54  74 S17G23    29.60R
6HR MIN TEMP:  62; 6HR MAX TEMP:  64;

HIBBING        CLOUDY    59  51  75 S9        29.63R
6HR MIN TEMP:  59; 6HR MAX TEMP:  62;

ALEXANDRIA     CLOUDY    62  56  80 S20       29.55R
6HR MIN TEMP:  61; 6HR MAX TEMP:  65;

SAINT CLOUD    CLOUDY    63  55  75 S15       29.61S
6HR MIN TEMP:  62; 6HR MAX TEMP:  65;

MINNEAPOLIS    LGT RAIN  60  59  96 SE9       29.70R
6HR MIN TEMP:  62; 6HR MAX TEMP:  66; 6HR PCP: TRACE;

$$

  *****  WEATHER ACROSS SOUTH DAKOTA  *****

CITY           SKY/WX    TMP DP  RH WIND       PRES   REMARKS
SIOUX FALLS    MOCLDY    65  60  84 S17       29.51S
6HR MIN TEMP:  65; 6HR MAX TEMP:  68;

BROOKINGS      CLOUDY    63  57  82 S14G22    29.50S
WATERTOWN      FAIR      61  58  90 S14       29.46F
6HR MIN TEMP:  60; 6HR MAX TEMP:  65;

HURON          FAIR      61  57  87 S9G18     29.44R
6HR MIN TEMP:  61; 6HR MAX TEMP:  68;

SISSETON         N/A     65  58  78 S14G24    29.43R
ABERDEEN       FAIR      57  51  80 W9        29.44R
6HR MIN TEMP:  57; 6HR MAX TEMP:  66;

MITCHELL       FAIR      63  58  83 S10       29.45S
PIERRE         FAIR      54  41  61 NW23G38   29.54R
6HR MIN TEMP:  54; 6HR MAX TEMP:  64;

MOBRIDGE       MOCLDY    54  40  59 NW21G28   29.52R
RAPID CITY     MOCLDY    49  28  44 NW28      29.66R
6HR MIN TEMP:  49; 6HR MAX TEMP:  61; 6HR PCP: TRACE;

$$

  *****  SOME WEATHER IN NEARBY STATES *****

CITY           SKY/WX    TMP DP  RH WIND       PRES   REMARKS
GLASGOW MT     CLOUDY    43  39  86 W22G31    29.57R
6HR MIN TEMP:  43; 6HR MAX TEMP:  48; 6HR PCP: TRACE;

GREAT FALLS MT FAIR      36  24  62 SW14      29.79R
6HR MIN TEMP:  34; 6HR MAX TEMP:  40;

CHEYENNE WY    FAIR      37  14  38 NW21G38   29.86R
6HR MIN TEMP:  37; 6HR MAX TEMP:  43;

SCOTTSBLUFF NE FAIR      48  22  35 W21G32    29.74R
6HR MIN TEMP:  48; 6HR MAX TEMP:  58; 6HR PCP: TRACE;

OMAHA NE       CLOUDY    67  61  81 S17       29.62S
6HR MIN TEMP:  65; 6HR MAX TEMP:  68; 6HR PCP:  0.08;

DES MOINES IA  CLOUDY    65  57  75 S18G26    29.77R
6HR MIN TEMP:  62; 6HR MAX TEMP:  65; 6HR PCP:  0.01;

DAVENPORT IA   FAIR      63  50  62 S14G23    29.97S
6HR MIN TEMP:  63; 6HR MAX TEMP:  66;

CHICAGO IL     CLOUDY    61  49  64 S13       30.05S
6HR MIN TEMP:  60; 6HR MAX TEMP:  66;

EAU CLAIRE WI  FAIR      61  49  64 S13       29.77S
6HR MIN TEMP:  61; 6HR MAX TEMP:  66;

LA CROSSE WI   MOCLDY    65  52  62 S12       29.83R
6HR MIN TEMP:  64; 6HR MAX TEMP:  67; 6HR PCP: TRACE;

$$

  *****  SOME NATIONAL WEATHER *****

CITY           SKY/WX    TMP DP  RH WIND       PRES   REMARKS
LA GUARDIA NY  FAIR      61  45  55 CALM      30.30R
6HR MIN TEMP:  58; 6HR MAX TEMP:  64;

RALEIGH NC     FAIR      48  48 100 CALM      30.32R
6HR MIN TEMP:  48; 6HR MAX TEMP:  53;

ATLANTA GA     MOCLDY    54  47  77 E7        30.27R
6HR MIN TEMP:  54; 6HR MAX TEMP:  61;

NEW ORLEANS LA CLOUDY    74  71  91 E8        30.04R
6HR MIN TEMP:  74; 6HR MAX TEMP:  76;

OKLAHOMA CITY  MOCLDY    68  65  90 S14       29.83R
6HR MIN TEMP:  68; 6HR MAX TEMP:  69;

ALBUQUERQUE NM CLOUDY    57  34  41 W9        29.94R
6HR MIN TEMP:  56; 6HR MAX TEMP:  64;

SALT LAKE CITY MOCLDY    42  32  67 W5        30.12R
6HR MIN TEMP:  39; 6HR MAX TEMP:  45; 6HR PCP: TRACE;

LOS ANGELES CA FAIR      62  41  46 N8        29.99R
6HR MIN TEMP:  62; 6HR M



USA.gov is the U.S. government's official web portal to all federal, state and local government web resources and services.